Location: Fluertsh�userhof
(48.7537°N, 10.3850°E)
Time: 03:08:14
(UTC+00:00)

CZ-2C R/B - Pass Details

Date: 18 September 2020
Orbit: 640 x 704 km, 98.4° (Epoch: 24 October)

Event Time Altitude Azimuth Distance (km) Brightness Sun altitude
Rises 19:58:32 0° 12° (NNE) 2,962 7.3 -24.7°
Reaches altitude 10° 20:00:45 10° 11° (N) 2,051 6.5 -25.0°
Maximum altitude 20:05:12 74° 287° (WNW) 678 3.7 -25.6°
Enters shadow 20:05:31 70° 249° (WSW) 692 3.7 -25.7°
